Location: Moena
(46.3667°N, 11.6500°E)
Time: 14:37:52
(UTC+00:00)

Cosmos 2333 Rocket - Pass Details

Date: 21 June 2021
Orbit: 841 x 861 km, 70.8° (Epoch: 26 July)

Event Time Altitude Azimuth Distance (km) Brightness Sun altitude
Rises 20:03:57 0° 189° (S) 3,420 5.0 -7.9°
Reaches altitude 10° 20:06:27 10° 185° (S) 2,486 4.3 -8.2°
Maximum altitude 20:11:59 53° 110° (ESE) 1,048 2.4 -8.8°
Drops below altitude 10° 20:17:32 10° 35° (NE) 2,492 4.8 -9.4°
Sets 20:20:02 0° 31° (NNE) 3,429 5.6 -9.7°
